This is the latest recevied weather packets stored in our database for station/object KI7CSN-13. If no packets are shown the sender has not sent any weather packets the latest 10 day(s).
| Time | Temp. | Humidity | Pressure | Rain* | Wind** | Luminosity | Snow |
|---|---|---|---|---|---|---|---|
| 1777755468 | 26.11° C | 16% | 984.3 hPa | 0 mm | - | - | - |
| 1777755168 | 26.67° C | 15% | 984.3 hPa | 0 mm | - | - | - |
| 1777754868 | 27.22° C | 15% | 984.2 hPa | 0 mm | - | - | - |
| 1777754568 | 26.67° C | 16% | 984.3 hPa | 0 mm | - | - | - |
| 1777754268 | 26.11° C | 15% | 984.3 hPa | 0 mm | - | - | - |
| 1777753968 | 25.56° C | 15% | 984.4 hPa | 0 mm | - | - | - |
| 1777753668 | 27.22° C | 16% | 984.6 hPa | 0 mm | - | - | - |
| 1777753368 | 27.22° C | 15% | 984.7 hPa | 0 mm | - | - | - |
| 1777753068 | 26.67° C | 16% | 984.6 hPa | 0 mm | - | - | - |
| 1777752768 | 26.11° C | 16% | 984.8 hPa | 0 mm | - | - | - |
| 1777752468 | 26.67° C | 15% | 984.7 hPa | 0 mm | - | - | - |
| 1777752168 | 25° C | 16% | 984.8 hPa | 0 mm | - | - | - |
| 1777751868 | 25.56° C | 15% | 984.8 hPa | 0 mm | - | - | - |
| 1777751568 | 26.11° C | 16% | 984.9 hPa | 0 mm | - | - | - |
| 1777751268 | 25.56° C | 17% | 984.9 hPa | 0 mm | - | - | - |
| 1777750968 | 25° C | 16% | 985 hPa | 0 mm | - | - | - |
| 1777750668 | 25° C | 16% | 985 hPa | 0 mm | - | - | - |
| 1777750368 | 25.56° C | 16% | 985.1 hPa | 0 mm | - | - | - |
| 1777750068 | 26.11° C | 16% | 985 hPa | 0 mm | - | - | - |
| 1777749768 | 25.56° C | 15% | 985.1 hPa | 0 mm | - | - | - |
| 1777749468 | 26.11° C | 16% | 985.1 hPa | 0 mm | - | - | - |
| 1777749168 | 25.56° C | 15% | 985.2 hPa | 0 mm | - | - | - |
| 1777748868 | 25.56° C | 16% | 985.2 hPa | 0 mm | - | - | - |
| 1777748568 | 26.11° C | 16% | 985.4 hPa | 0 mm | - | - | - |
| 1777748268 | 25° C | 16% | 985.4 hPa | 0 mm | - | - | - |
* Rain latest hour (hover to see other rain measurements)
** Current wind speed in m/s (hover to see current wind gust speed)